Home   Weather   Feldbach   Past weeks

Flag for Austria Past Weather in Feldbach, Styria, Austria — Yesterday and Last 2 Weeks

52 °F

Scattered clouds.

Feels Like: N/A
Forecast: 40 / 60 °F
Wind: N/A

Location: Graz-Thalerhof-Flughafen

Current Time: Oct 23, 2016 at 4:25:01 PM

Latest Report: Oct 23, 2016 at 2:00 PM

Visibility: 17 mi

Pressure: 30.03 "Hg

Humidity: 73%

Dew Point: 44 °F

Location of FeldbachLocation

Past Weather in Feldbach — Graph


Feldbach Temperature Yesterday

Maximum temperature yesterday: 54 °F (at 3:00 PM)
Minimum temperature yesterday: 33 °F (at 7:00 AM)
Average temperature yesterday: 42 °F

High & Low Weather Summary for the Past Weeks

High65 °F (Oct 16, 4:00 PM)100% (Oct 11, 9:00 PM)30.31 "Hg (Oct 11, 9:00 PM)
Low29 °F (Oct 13, 6:00 AM)44% (Oct 12, 3:00 PM)29.92 "Hg (Oct 12, 5:00 AM)
Average46 °F88%30.11 "Hg
* Reported Oct 8 2:00 PM — Oct 23 2:00 PM, Feldbach, Weather by CustomWeather, © 2016

Note: Actual official high and low records may vary slightly from our data, if they occured in-between our weather recording intervals... More about our weather records


Feldbach Weather History for the Previous 24 Hours

Scroll right to see more
Time TempWeatherWind HumidityBarometerVisibility
2:00 PM
Sun, Oct 23
52 °FScattered clouds.N/A73%30.03 "Hg17 mi
1:00 PM47 °FScattered clouds.N/A89%30.06 "Hg9 mi
12:00 PM41 °FScattered clouds.N/A99%30.08 "Hg3 mi
11:00 AM39 °FLight snow. Partly sunny.N/A100%30.08 "Hg0 mi
10:00 AM38 °FLight snow. Low clouds.N/A100%30.10 "Hg0 mi
9:00 AM36 °FLight snow. Low clouds.N/A100%30.09 "Hg0 mi
8:00 AM36 °FLight snow. Dense fog.N/A100%30.09 "Hg0 mi
7:00 AM36 °FLight snow. Low clouds.N/A100%30.08 "Hg0 mi
6:00 AM36 °FLight snow. Low clouds.N/A100%30.08 "Hg0 mi
5:00 AM36 °FLight snow. Low clouds.N/A100%30.08 "Hg0 mi
4:00 AM36 °FLight snow. Low clouds.N/A100%30.08 "Hg0 mi
3:00 AM36 °FLight snow. Passing clouds.N/A100%30.09 "Hg0 mi
2:00 AM34 °FLight rain. Passing clouds.N/A99%30.10 "Hg0 mi
1:00 AM36 °FLight rain. Overcast.N/A98%30.10 "Hg0 mi
12:00 AM39 °FPassing clouds.N/A97%30.08 "Hg6 mi
11:00 PM
Sat, Oct 22
41 °FPassing clouds.N/A92%30.08 "Hg10 mi
10:00 PM42 °FOvercast.N/A91%30.08 "Hg14 mi
9:00 PM43 °FPassing clouds.N/A87%30.06 "Hg11 mi
8:00 PM44 °FPassing clouds.N/A84%30.04 "Hg17 mi
7:00 PM45 °FPassing clouds.N/A84%30.03 "Hg28 mi
6:00 PM50 °FPassing clouds.3 mph73%30.01 "Hg28 mi
5:00 PM50 °FScattered clouds.N/A73%30.00 "Hg31 mi
4:00 PM54 °FScattered clouds.3 mph64%29.99 "Hg25 mi
Weather by CustomWeather, © 2016

See weather overviewHow to use our weather pages